Regional Weather Roundup
Issued by NWS

Home | Current Version | Previous Version | Graphics & Text | Print | Product List | Glossary On
Versions: 1 2 3 4 5 6 7 8 9 10 11 12 13 14 15 16 17 18 19 20 21 22 23 24 25 26 27 28 29 30 31 32 33 34 35 36 37 38 39 40 41 42 43 44 45 46 47 48 49 50
000
ASUS43 KDMX 200307
RWRIA

WEATHER ROUNDUP FOR IOWA
NATIONAL WEATHER SERVICE DES MOINES IA
1000 PM CDT SUN APR 19 2015

NOTE: "FAIR" INDICATES FEW OR NO CLOUDS BELOW 12,000 FEET WITH NO
SIGNIFICANT WEATHER AND/OR OBSTRUCTIONS TO VISIBILITY.

* - THESE STATIONS ARE NOT NWS STATIONS...THUS NOT UNDER NWS
QUALITY CONTROL.  THEY ALSO DO NOT REPORT WEATHER SUCH
AS PRECIPITATION OR FOG.

IAZ001>003-012>014-020>022-031>034-043>046-200400-
   NORTHWEST IOWA

CITY           SKY/WX    TMP DP  RH WIND       PRES   REMARKS
CARROLL *      CLEAR     48  41  76 NW16      29.65S
CHEROKEE *     CLOUDY    48  37  66 N13G20    29.69S
DENISON *      CLEAR     46  41  81 NW12      29.67S
LE MARS *      PTCLDY    48  36  61 NW17      29.73S
ORANGE CITY *  MOCLDY    46  34  61 N14G21    29.71S
SHELDON *      PTCLDY    45  37  76 NW14      29.69S
SIOUX CITY     PTCLDY    50  33  52 NW21      29.73R
SPENCER        CLOUDY    47  39  74 NW18      29.66F
STORM LAKE *   CLOUDY    46  37  71 N20G26    29.68R
$$

IAZ055>058-069>071-079>083-090>094-200400-
   SOUTHWEST IOWA

CITY           SKY/WX    TMP DP  RH WIND       PRES   REMARKS
ATLANTIC *     CLOUDY    48  43  81 NW13      29.69R
AUDUBON *      CLEAR     46  43  87 NW6       29.67S
CLARINDA *     CLOUDY    48  45  87 W8        29.72S
COUNCIL BLFS * CLOUDY    48  37  66 NW14G23   29.73R
CRESTON *      CLOUDY    46  45  93 NW15      29.67R
HARLAN  *        N/A     46  45  93 NW15      29.72S
LAMONI         CLOUDY    49  42  77 N18G28    29.63S
RED OAK *      CLOUDY    50  43  76 NW8       29.71S
SHENANDOAH *   CLOUDY    50  43  76 NW9       29.73S
$$

IAZ047>049-059>061-072>074-084-200400-
   CENTRAL IOWA

CITY           SKY/WX    TMP DP  RH WIND       PRES   REMARKS
AMES           LGT RAIN  47  45  93 N17G24    29.60S
ANKENY *       LGT RAIN  46  45  93 N20G29    29.60S
CHARITON *     LGT RAIN  48  45  87 NW22G32   29.61R
DES MOINES     LGT RAIN  47  42  83 N17G25    29.61S
GRINNELL*      RAIN      46  43  87 NW23G32   29.55R
KNOXVILLE *    CLOUDY    48  43  81 NW22G32   29.57S
MARSHALLTOWN   LGT RAIN  46  43  89 NW24G35   29.55S
PELLA *        DRIZZLE   48  46  93 NW28G33   29.58R
PERRY *        CLOUDY    48  45  87 NW7       29.64R
$$

IAZ004>006-015-016-023>025-035-036-200400-
   NORTH CENTRAL IOWA

CITY           SKY/WX    TMP DP  RH WIND       PRES   REMARKS
ALGONA *       PTCLDY    48  41  76 N15       29.62F
CLARION *      CLOUDY    46  46 100 NW16      29.60S
ESTHERVILLE    CLOUDY    45  39  79 N14       29.64F
FORT DODGE *   CLOUDY    46  39  76 NW8       29.63S
MASON CITY     LGT RAIN  46  42  86 NW17      29.58F
FOREST CITY *  CLOUDY    45  43  93 NW16      29.59S
IOWA FALLS *   MIX PCPN  46  41  81 NW21G30   29.58S
$$

IAZ007>011-017>019-026>030-037>042-050>054-066-200400-
   NORTHEAST IOWA

CITY           SKY/WX    TMP DP  RH WIND       PRES   REMARKS
CEDAR RAPIDS   RAIN      49  48  97 NW28G33   29.44F
CHARLES CITY * LGT RAIN  46  46 100 NW23G30   29.53S
CLINTON *      CLOUDY    55  54  94 SE7       29.43F
DECORAH *      RAIN      50  48  93 N16G24    29.48R
DUBUQUE        CLOUDY    55  53  93 SE5       29.41F FOG
MONTICELLO *   RAIN      57  57 100 N10       29.41S
OELWEIN *      RAIN      48  46  93 NW26G36   29.49S
WATERLOO       RAIN      47  45  93 NW25G36   29.51F
$$

IAZ064-065-067-068-078-200400-
   EAST CENTRAL IOWA

CITY           SKY/WX    TMP DP  RH WIND       PRES   REMARKS
DAVENPORT      LGT RAIN  56  53  90 W9        29.41F
IOWA CITY      LGT RAIN  51  49  92 NW18G31   29.44S
MT. PLEASANT * CLOUDY    52  50  93 NW17G24   29.47S
MUSCATINE *    LGT RAIN  55  54  94 W9G15     29.43S
QUAD CITIES    CLOUDY    57  53  86 W5        29.40F
$$

IAZ062-063-075>077-085>089-095>099-200400-
   SOUTHEAST IOWA

CITY           SKY/WX    TMP DP  RH WIND       PRES   REMARKS
BURLINGTON     CLOUDY    57  55  93 NW9       29.43F
FAIRFIELD *    CLOUDY    52  46  82 NW26G32   29.50R
FORT MADISON * CLOUDY    55  54  94 NW18G28   29.44F
KEOKUK *       LGT RAIN  55  54  94 NW16G28   29.45S
OSKALOOSA *    CLOUDY    48  45  87 NW28G36   29.54R
CENTERVILLE *  LGT RAIN  46  46 100 NW25G32   29.59R
OTTUMWA        CLOUDY    50  45  83 NW25G39   29.54R
WASHINGTON *   CLOUDY    52  52 100 NW24G32   29.47R
$$

ABBREVIATIONS USED IN REMARKS
   TC - TEMPERATURES IN CELSIUS
  WCI - WIND CHILL INDEX
   HX - HEAT INDEX
  VSB - VISIBILITY
$$




USA.gov is the U.S. government's official web portal to all federal, state and local government web resources and services.